Simultaneous Nadir Overpasses (SNOs) Predictions

Prediction of SNOs between LANDSAT-8 and NOAA-19 Satellite Orbit:

Table of predicted SNOs for the next 14.0 days since TLE Epoch: 6/22/2018
Index Date (LANDSAT-8) Time (LANDSAT-8) Lat,Lon (LANDSAT-8) SZA (LANDSAT-8 ) Date (NOAA-19) Time (NOAA-19) Lat,Lon (NOAA-19) SZA (NOAA-19 ) Distance(km) Time Diff (sec)
1 06/23/2018 19:35:05 77.66, -99.84 54.55 06/23/2018 19:34:41 77.66, -99.66 54.56 4.30 24
2 06/23/2018 20:24:33 -77.63, 67.67 125.49 06/23/2018 20:25:44 -77.62, 67.77 125.47 2.41 71
3 06/26/2018 01:08:51 -77.67, -3.23 125.40 06/26/2018 01:08:20 -77.69, -3.15 125.37 3.37 31
4 06/26/2018 01:58:17 77.66, 164.36 54.59 06/26/2018 01:59:17 77.67, 164.23 54.62 3.34 60
5 06/28/2018 06:42:35 77.69, 93.44 54.72 06/28/2018 06:41:52 77.68, 93.58 54.71 3.49 43
6 06/28/2018 07:32:03 -77.67, -99.03 125.32 06/28/2018 07:32:55 -77.68, -99.15 125.30 3.18 52
7 06/30/2018 12:16:21 -77.70,-169.95 125.16 06/30/2018 12:15:30 -77.71,-169.91 125.15 1.72 51
8 06/30/2018 13:05:47 77.69, -2.38 54.83 06/30/2018 13:06:27 77.66, -2.34 54.81 3.35 40
9 07/02/2018 17:50:05 77.72, -73.31 55.02 07/02/2018 17:49:03 77.72, -73.23 55.01 2.00 62
10 07/02/2018 18:39:33 -77.70, 94.23 125.01 07/02/2018 18:40:04 -77.67, 94.25 125.03 2.93 31
11 07/04/2018 23:23:51 -77.73, 23.29 124.79 07/04/2018 23:22:40 -77.75, 23.25 124.79 2.99 71




NCC Satellite Simultaneous Nadir Overpasses (SNOs) Prediction Service
